Regional Weather Roundup
Issued by NWS

Home | Current Version | Previous Version | Graphics & Text | Print | Product List | Glossary Off
Versions: 1 2 3 4 5 6 7 8 9 10 11 12 13 14 15 16 17 18 19 20 21 22 23 24 25 26 27 28 29 30 31 32 33 34 35 36 37 38 39 40 41 42 43 44 45 46 47 48 49 50

000
ASUS43 KMPX 260610
RWRMN
WEATHER ROUNDUP FOR MINNESOTA
NATIONAL WEATHER SERVICE TWIN CITIES/CHANHASSEN MN
1200 AM CST WED NOV 26 2014


NOTE: "FAIR" INDICATES FEW OR NO CLOUDS BELOW 12,000 FEET WITH NO
SIGNIFICANT WEATHER AND/OR OBSTRUCTIONS TO VISIBILITY. N/A MEANS
CURRENT SKY AND/OR WEATHER CONDITIONS ARE NOT AVAILABLE.

MNZ060>063-068>070-260700-
   Twin Cities Metro

CITY           SKY/WX    TMP DP  RH WIND       PRES   REMARKS
TWIN CITIES    CLOUDY    24  16  71 SE9       30.03S WCI  14
6HR MIN TEMP:  23; 6HR MAX TEMP:  24;

ST PAUL        CLOUDY    25  17  72 SE9       30.05S WCI  15
CRYSTAL        CLOUDY    26  16  65 SE7       30.01F WCI  18
BLAINE         MOCLDY    27  19  74 E5        30.03R WCI  21
LAKEVILLE      CLOUDY    21  18  86 SE8       30.02S WCI  12
EDEN PRAIRIE   CLOUDY    24  17  74 SE9       30.01R WCI  14
6HR MIN TEMP:  23; 6HR MAX TEMP:  25;

SOUTH ST PAUL  CLOUDY    26  17  69 SE3       30.04S
LAKE ELMO      CLOUDY    27  18  69 SE5       30.04F WCI  21
$$
MNZ001>005-007-008-013>017-022>024-027-028-260700-
   Northwest Minnesota

CITY           SKY/WX    TMP DP  RH WIND       PRES   REMARKS
BEMIDJI        LGT SNOW  18  14  84 CALM      30.03R
HALLOCK        MOCLDY     7   1  78 N15       30.19R WCI -11
ROSEAU         FLURRIES  12   7  79 N13       30.14R WCI  -3
WARROAD        LGT SNOW  12   9  85 NW7       30.13R WCI   2
THIEF RVR FALL CLOUDY    14  10  85 N13       30.10R WCI   0
CROOKSTON      LGT SNOW  16  12  86 N10       30.14R WCI   3
FOSSTON        LGT SNOW  18  16  93 N9        30.06R WCI   6
DETROIT LAKES  FLURRIES  21  16  79 NE5       30.02R WCI  15
MOORHEAD       LGT RAIN  21  21 100 N15       30.06R WCI   8
PARK RAPIDS    CLOUDY    18  10  71 NE5       30.01R WCI  11
MAHNOMEN       CLOUDY    20  18  92 N8        30.04R FOG     WCI  10
$$
MNZ006-009>011-018-025>026-260700-
   North Central Minnesota

CITY           SKY/WX    TMP DP  RH WIND       PRES   REMARKS
BAUDETTE       FLURRIES  14  10  84 N6        30.09R WCI   5
FLAG ISLAND    CLOUDY    10   5  79 N14       30.12R WCI  -5
INTL FALLS     LGT SNOW  15  11  83 N5        30.07R FOG     WCI   8
6HR MIN TEMP:   6; 6HR MAX TEMP:  16; 6HR PCP:  0.01;

WASKISH        LGT SNOW  16  12  86 CALM      30.07R
BIG FORK       CLOUDY    19  10  68 CALM      30.05R
LONGVILLE      CLOUDY    18  10  73 CALM      30.04S
GRAND RAPIDS   CLOUDY    18   9  68 S5        30.03S WCI  11
CRANE LAKE     CLOUDY    10   9  92 CALM      30.08S
ORR            CLOUDY    16  10  79 CALM      30.02R
COOK           CLOUDY    16  10  79 CALM      30.05R
WALKER         CLOUDY    19   8  62 CALM      30.03R
$$
MNZ012-019>021-037-260700-
   Northeast Minnesota

CITY           SKY/WX    TMP DP  RH WIND       PRES   REMARKS
DULUTH         CLOUDY    19  11  70 W3        30.04R
6HR MIN TEMP:  17; 6HR MAX TEMP:  19;

ELY            MOCLDY     3   0  85 CALM      30.04S
HIBBING        CLOUDY    19   7  59 CALM      30.04R
EVELETH        CLOUDY    19  10  68 CALM      30.05R
DULUTH HARBOR  CLOUDY    21  14  73 CALM      30.10S
TWO HARBORS    CLOUDY    19  10  68 NW5       30.04S WCI  13
SILVER BAY     PTCLDY    10   7  85 CALM      30.05R
GRAND MARAIS     N/A     18   4  54 N8        30.08R WCI   8
G MARAIS ARPRT MOCLDY     3   0  85 NW5       30.00S WCI  -6
$$
MNZ029>031-032-039>041-046>048-054>057-064-260700-
   West Central Minnesota

CITY           SKY/WX    TMP DP  RH WIND       PRES   REMARKS
FERGUS FALLS   CLOUDY    21  10  63 E13       30.02R WCI   9
WHEATON        CLOUDY    23  16  74 NE9       29.98R WCI  13
MORRIS         CLOUDY    25  18  74 E12       29.93R WCI  14
ALEXANDRIA     CLOUDY    21  13  71 E9        29.96R WCI  11
ELBOW LAKE       N/A     22  15  75 NE10      29.96R WCI  11
WADENA         CLOUDY    18   9  68 E8        30.00R WCI   7
GLENWOOD       MOCLDY    21  18  86 E9        29.95S WCI  11
APPLETON       CLOUDY    27  19  74 E9        29.92R WCI  17
BENSON         CLOUDY    25  18  74 SE8       29.93R WCI  16
ORTONVILLE     LGT SNOW  25  19  80 E8        29.91R WCI  16
MADISON        LGT SNOW  30  28  93 SE8       29.90R WCI  23
WILLMAR        FAIR      27  18  69 SE13      29.95R WCI  16
$$
MNZ033>034-036-042>043-049>051-058-059-260700-
   Central Minnesota

CITY           SKY/WX    TMP DP  RH WIND       PRES   REMARKS
ST CLOUD       CLOUDY    24  15  68 E8        30.01R WCI  15
6HR MIN TEMP:  21; 6HR MAX TEMP:  24;

SAUK CENTRE    CLOUDY    21  14  74 NE8       29.97S WCI  11
PAYNESVILLE    CLOUDY    21  14  75 NE8       29.97R WCI  11
AITKIN         CLOUDY    21  12  68 NE3       30.03S
PINE RIVER     CLOUDY    18  10  73 NE3       30.06S
BRAINERD       CLOUDY    19  11  70 E6        30.03R WCI  11
STAPLES        CLOUDY    18  10  73 CALM      30.01R
LONG PRAIRIE   CLOUDY    19  12  73 NE6       29.98S WCI  11
LITTLE FALLS   CLOUDY    21  14  73 E3        30.01S
LITCHFIELD     CLOUDY    25  19  80 SE8       29.97R WCI  16
BUFFALO        MOCLDY    24  17  72 E6        30.01S WCI  17
MAPLE LAKE     MOCLDY    25  18  76 E6        30.01R WCI  18
$$
MNZ037-044-045-052-053-260700-
   East Central Minnesota

CITY           SKY/WX    TMP DP  RH WIND       PRES   REMARKS
PRINCETON      CLOUDY    23  18  80 CALM      30.02R
MORA           CLOUDY    19  14  79 E3        30.06R
CAMBRIDGE      CLOUDY    25  16  68 E3        30.02S
RUSH CITY      CLOUDY    22  17  79 CALM      30.06R
MOOSE LAKE     CLOUDY    19  14  79 CALM      30.04S
HINCKLEY       CLOUDY    21  18  86 CALM      30.06S
CLOQUET        CLOUDY    18  10  73 CALM      30.05R
MCGREGOR       CLOUDY    19  14  79 CALM      30.05S
$$
MNZ071>073-080-081-089-090-097-098-260700-
   Southwest Minnesota

CITY           SKY/WX    TMP DP  RH WIND       PRES   REMARKS
MONTEVIDEO     CLOUDY    27  21  80 S10       29.92R WCI  17
GRANITE FALLS  LGT SNOW  27  24  91 E13       29.92S WCI  16
CANBY          LGT SNOW  28  27  95 E7        29.88S WCI  21
MARSHALL       CLOUDY    28  23  80 SE10      29.88S WCI  19
REDWOOD FALLS  LGT SNOW  26  23  88 SE12      29.93S FOG     WCI  16
OLIVIA         CLOUDY    28  21  74 SE12      29.93R WCI  18
PIPESTONE      LGT SNOW  28  27  93 SE10      29.82R WCI  19
WINDOM         LGT SNOW  28  21  74 SE12G18   29.89S WCI  18
WORTHINGTON    CLOUDY    27  25  93 SE12      29.86S WCI  16
JACKSON        FLURRIES  28  21  74 SE12      29.89F WCI  18
TRACY          LGT SNOW  28  26  91 SE13      29.88R WCI  18
SLAYTON        LGT SNOW  27  26  99 SE12      29.85F WCI  16
$$
MNZ065>067-074>077-082>085-091>093-260700-
   South Central Minnesota

CITY           SKY/WX    TMP DP  RH WIND       PRES   REMARKS
MANKATO        CLOUDY    25  14  63 SE15      29.97S WCI  12
NEW ULM        CLOUDY    25  18  74 SE10      29.95S WCI  15
ST JAMES       LGT SNOW  28  21  74 SE8       29.95S WCI  20
FAIRMONT       CLOUDY    27  16  63 SE14      29.93S WCI  15
GLENCOE        CLOUDY    25  20  81 E9        29.97S WCI  16
FARIBAULT      CLOUDY    25  18  74 SE8       30.01R WCI  16
OWATONNA       CLOUDY    23  16  74 SE12      29.99S WCI  12
WASECA         CLOUDY    23  14  68 SE10      29.99F WCI  12
ALBERT LEA     CLOUDY    23  18  80 SE13      29.98F WCI  11
$$
MNZ078>079-086>088-094>096-260700-
   Southeast Minnesota

CITY           SKY/WX    TMP DP  RH WIND       PRES   REMARKS
ROCHESTER      CLOUDY    19  14  81 SE10      30.02F WCI   7
6HR MIN TEMP:  17; 6HR MAX TEMP:  19;

RED WING       CLOUDY    25  14  63 SE7       30.06S WCI  17
STANTON        CLOUDY    26  17  69 SE5       30.02R WCI  20
DODGE CENTER   MOCLDY    19  18  93 SE10      30.00F WCI   8
WINONA         CLOUDY    21  16  79 CALM      30.11S
AUSTIN         CLOUDY    21  16  79 SE8       30.01S WCI  12
PRESTON        MOCLDY    15  12  85 SE6       30.05S WCI   7
$$
ABBREVIATIONS USED IN REMARKS
   TC - TEMPERATURES IN CELSIUS
  WCI - WIND CHILL INDEX
   HX - HEAT INDEX
  VSB - VISIBILITY
$$



USA.gov is the U.S. government's official web portal to all federal, state and local government web resources and services.